TimeEDT,TemperatureF,Dew PointF,Humidity,Sea Level PressureIn,VisibilityMPH,Wind Direction,Wind SpeedMPH,Gust SpeedMPH,PrecipitationIn,Events,Conditions,WindDirDegrees,DateUTC
12:51 AM,48.0,44.1,86,30.12,10.0,WNW,4.6,-,N/A,,Mostly Cloudy,290,2012-09-16 04:51:00
1:51 AM,46.9,44.1,90,30.12,10.0,Calm,Calm,-,N/A,,Mostly Cloudy,0,2012-09-16 05:51:00
2:51 AM,46.0,43.0,89,30.11,10.0,WNW,3.5,-,N/A,,Mostly Cloudy,290,2012-09-16 06:51:00
3:51 AM,46.0,42.1,86,30.11,10.0,West,5.8,-,N/A,,Clear,280,2012-09-16 07:51:00
4:51 AM,44.1,42.1,93,30.11,10.0,WNW,3.5,-,N/A,,Clear,290,2012-09-16 08:51:00
5:51 AM,42.8,41.0,93,30.10,10.0,WNW,3.5,-,N/A,,Clear,290,2012-09-16 09:51:00
6:51 AM,41.0,39.9,96,30.14,10.0,Calm,Calm,-,N/A,,Clear,0,2012-09-16 10:51:00
7:51 AM,44.1,42.1,93,30.15,10.0,Calm,Calm,-,N/A,,Clear,0,2012-09-16 11:51:00
8:51 AM,46.9,41.0,80,30.16,10.0,NNW,6.9,-,N/A,,Clear,330,2012-09-16 12:51:00
9:51 AM,48.0,35.1,61,30.17,10.0,WNW,13.8,19.6,0.01,,Partly Cloudy,300,2012-09-16 13:51:00
10:51 AM,51.1,35.1,54,30.16,10.0,NNW,9.2,16.1,N/A,,Partly Cloudy,330,2012-09-16 14:51:00
11:51 AM,54.0,37.0,53,30.16,10.0,NNW,4.6,-,N/A,,Partly Cloudy,330,2012-09-16 15:51:00
12:51 PM,55.0,37.0,51,30.14,10.0,WNW,10.4,-,N/A,,Clear,290,2012-09-16 16:51:00
1:51 PM,57.0,36.0,45,30.12,10.0,Variable,5.8,-,N/A,,Clear,0,2012-09-16 17:51:00
2:51 PM,59.0,37.0,44,30.09,10.0,NW,10.4,-,N/A,,Clear,320,2012-09-16 18:51:00
3:51 PM,59.0,36.0,42,30.08,10.0,North,9.2,-,N/A,,Clear,360,2012-09-16 19:51:00
4:51 PM,59.0,37.0,44,30.08,10.0,NNW,5.8,-,N/A,,Clear,330,2012-09-16 20:51:00
5:51 PM,57.0,37.9,49,30.07,10.0,NW,4.6,-,N/A,,Clear,320,2012-09-16 21:51:00
6:51 PM,48.0,42.1,80,30.08,10.0,Calm,Calm,-,N/A,,Clear,0,2012-09-16 22:51:00
7:51 PM,44.1,39.9,85,30.09,10.0,South,4.6,-,N/A,,Clear,190,2012-09-16 23:51:00
8:51 PM,42.1,39.0,89,30.09,10.0,Calm,Calm,-,N/A,,Clear,0,2012-09-17 00:51:00
9:51 PM,41.0,39.0,93,30.10,10.0,Calm,Calm,-,N/A,,Clear,0,2012-09-17 01:51:00
10:51 PM,39.0,37.0,93,30.11,10.0,Calm,Calm,-,N/A,,Clear,0,2012-09-17 02:51:00
11:51 PM,37.9,37.0,97,30.11,10.0,Calm,Calm,-,N/A,,Clear,0,2012-09-17 03:51:00